FW7665 Weather Reports


Display with metric or nautical units.
time (UTC)temp
F
wind
direction
speed
MPH
gust
MPH
rain 1hr
in
rain 24hr
in
rain mn
in
humidity
%
barometer
mb
20260508050009 36 0 0.0 0.0 0.00 0.00 0.00 89 1017.3
20260508045408 36 0 0.0 0.0 0.00 0.00 0.00 89 1017.3
20260508044508 36 0 0.0 0.0 0.00 0.00 0.00 89 1017.7
20260508043608 36 0 0.0 0.0 0.00 0.00 0.00 89 1017.7
20260508042708 36 0 0.0 0.0 0.00 0.00 0.00 89 1017.7
20260508041808 36 0 0.0 0.0 0.00 0.00 0.00 89 1017.7
20260508040908 36 0 0.0 0.0 0.00 0.00 0.00 88 1017.7
20260508040009 36 0 0.0 0.0 0.00 0.00 0.00 88 1017.7
20260508035408 36 0 0.0 0.0 0.00 0.00 0.00 88 1017.7
20260508034508 36 0 0.0 0.0 0.00 0.00 0.00 88 1017.7
20260508033608 36 0 0.0 0.0 0.00 0.00 0.00 88 1017.7
20260508032708 36 227 0.0 1.0 0.00 0.00 0.00 88 1017.7
20260508031808 37 0 0.0 0.0 0.00 0.00 0.00 88 1017.7
20260508030929 37 0 0.0 0.0 0.00 0.00 0.00 87 1017.7
20260508030008 37 0 0.0 0.0 0.00 0.00 0.00 87 1017.7
20260508025407 37 227 0.0 1.0 0.00 0.00 0.00 86 1017.7
20260508024529 38 0 0.0 0.0 0.00 0.00 0.00 86 1017.9
20260508023608 38 0 0.0 0.0 0.00 0.00 0.00 85 1017.9
20260508022708 38 0 0.0 0.0 0.00 0.00 0.00 85 1017.9
20260508021808 39 0 0.0 0.0 0.00 0.00 0.00 84 1017.9
20260508020928 40 0 0.0 0.0 0.00 0.00 0.00 83 1017.9
20260508020008 40 0 0.0 0.0 0.00 0.00 0.00 80 1017.9
20260508015408 40 0 0.0 0.0 0.00 0.00 0.00 79 1017.9
20260508014508 41 0 0.0 0.0 0.00 0.00 0.00 78 1016.9
20260508013631 41 225 0.0 1.0 0.00 0.00 0.00 75 1016.9
20260508012707 42 225 0.0 2.0 0.00 0.00 0.00 74 1016.9
20260508011807 42 244 1.0 3.0 0.00 0.00 0.00 73 1016.9
20260508010911 43 241 1.0 6.0 0.00 0.00 0.00 70 1016.9
20260508010008 44 289 2.0 7.0 0.00 0.00 0.00 66 1016.9
20260508005407 44 253 2.0 7.0 0.00 0.00 0.00 68 1016.9
20260508004528 44 124 4.0 10.0 0.00 0.00 0.00 69 1018.0
20260508003609 42 94 3.0 8.0 0.00 0.00 0.00 71 1018.0
20260508002707 41 79 0.0 2.0 0.00 0.00 0.00 73 1018.0
20260508001828 43 79 0.0 2.0 0.00 0.00 0.00 69 1018.0
20260508000928 45 79 0.0 2.0 0.00 0.00 0.00 64 1018.0
20260508000007 46 28 2.0 6.0 0.00 0.00 0.00 63 1018.0
20260507235428 44 220 1.0 6.0 0.00 0.00 0.00 67 1018.0
20260507234507 42 139 0.0 2.0 0.00 0.00 0.00 73 1018.0
20260507233609 43 139 0.0 2.0 0.00 0.00 0.00 69 1018.0
20260507232712 44 139 0.0 2.0 0.00 0.00 0.00 66 1018.0
20260507231812 46 139 1.0 3.0 0.00 0.00 0.00 62 1018.0
20260507230933 47 181 1.0 4.0 0.00 0.00 0.00 57 1018.0
20260507230013 48 313 2.0 6.0 0.00 0.00 0.00 51 1018.0
20260507225412 50 62 2.0 7.0 0.00 0.00 0.00 48 1018.0
20260507224512 47 13 2.0 5.0 0.00 0.00 0.00 54 1018.0
20260507223612 48 40 2.0 5.0 0.00 0.00 0.00 56 1018.0
20260507222712 49 57 1.0 3.0 0.00 0.00 0.00 52 1018.0
20260507221812 48 18 2.0 6.0 0.00 0.00 0.00 50 1018.0
20260507220912 49 105 2.0 6.0 0.00 0.00 0.00 55 1018.0
20260507220012 48 85 3.0 12.0 0.00 0.00 0.00 49 1018.0
20260507215412 48 84 2.0 6.0 0.00 0.00 0.00 50 1018.0
20260507214512 48 184 2.0 5.0 0.00 0.00 0.00 55 1018.0
20260507213612 49 86 2.0 6.0 0.00 0.00 0.00 50 1018.0
20260507212711 49 97 3.0 7.0 0.00 0.00 0.00 46 1018.0
20260507211812 48 59 2.0 7.0 0.00 0.00 0.00 52 1018.0
20260507210912 46 82 2.0 7.0 0.00 0.00 0.00 60 1018.0
20260507210012 48 53 2.0 8.0 0.00 0.00 0.00 54 1018.0
20260507205432 47 71 1.0 6.0 0.00 0.00 0.00 55 1018.0
20260507204512 48 263 1.0 4.0 0.00 0.00 0.00 53 1018.0
20260507203612 46 289 1.0 3.0 0.00 0.00 0.00 61 1018.0
20260507202732 47 127 1.0 3.0 0.00 0.00 0.00 55 1018.0
20260507201832 44 101 1.0 3.0 0.00 0.00 0.00 66 1018.0
20260507200911 44 80 1.0 4.0 0.00 0.00 0.00 65 1018.0
20260507200033 44 28 1.0 5.0 0.00 0.00 0.00 65 1018.0
20260507195412 45 43 2.0 6.0 0.00 0.00 0.00 61 1018.0
20260507194512 43 26 1.0 3.0 0.00 0.00 0.00 68 1018.0
20260507193632 44 31 1.0 5.0 0.00 0.00 0.00 65 1018.0
20260507192712 41 38 0.0 2.0 0.00 0.00 0.00 74 1018.0
20260507191811 42 0 0.0 0.0 0.00 0.00 0.00 72 1018.0
20260507190911 43 59 1.0 7.0 0.00 0.00 0.00 67 1018.0
20260507190032 42 67 2.0 8.0 0.00 0.00 0.00 67 1018.0
20260507185411 42 84 1.0 6.0 0.00 0.00 0.00 73 1018.0
20260507184511 42 72 1.0 3.0 0.00 0.00 0.00 72 1018.0
20260507183611 41 71 1.0 3.0 0.00 0.00 0.00 74 1018.0
20260507182711 42 165 2.0 4.0 0.00 0.00 0.00 74 1019.7
20260507181812 41 226 1.0 4.0 0.00 0.00 0.00 77 1019.7
20260507180911 40 235 1.0 3.0 0.00 0.00 0.00 77 1019.7
20260507180012 41 0 0.0 0.0 0.00 0.00 0.00 76 1019.7
20260507175411 41 0 0.0 0.0 0.00 0.00 0.00 74 1019.7
20260507174532 43 248 0.0 2.0 0.00 0.00 0.00 70 1019.7
20260507173611 46 137 2.0 7.0 0.00 0.00 0.00 64 1019.7
20260507172711 48 48 1.0 6.0 0.00 0.00 0.00 56 1019.7
20260507171811 45 231 1.0 4.0 0.00 0.00 0.00 72 1019.7
20260507170913 40 221 1.0 2.0 0.00 0.00 0.00 79 1019.7
20260507170011 40 219 0.0 3.0 0.00 0.00 0.00 81 1019.7
20260507165411 39 0 0.0 0.0 0.00 0.00 0.00 82 1019.7
20260507164510 40 0 0.0 0.0 0.00 0.00 0.00 81 1019.7
20260507163611 40 0 0.0 0.0 0.00 0.00 0.00 79 1019.7
20260507162711 40 0 0.0 0.0 0.00 0.00 0.00 80 1019.7
20260507161811 38 0 0.0 0.0 0.00 0.00 0.00 81 1019.7
20260507160910 38 137 0.0 2.0 0.00 0.00 0.00 82 1019.7
20260507160011 37 137 1.0 2.0 0.00 0.00 0.00 81 1019.7
20260507155410 37 137 1.0 2.0 0.00 0.00 0.00 80 1019.7
20260507154510 37 137 1.0 2.0 0.00 0.00 0.00 79 1019.7
20260507153610 38 137 0.0 2.0 0.00 0.00 0.00 77 1019.7
20260507152712 39 209 1.0 5.0 0.00 0.00 0.00 72 1019.7
20260507151810 38 275 0.0 2.0 0.00 0.00 0.00 73 1019.7
20260507150911 39 274 2.0 6.0 0.00 0.00 0.00 69 1019.6
20260507150011 40 260 3.0 6.0 0.00 0.00 0.00 61 1019.6
20260507145410 40 256 3.0 7.0 0.00 0.00 0.00 63 1019.6
20260507144510 40 255 3.0 9.0 0.00 0.00 0.00 59 1019.6
20260507143631 40 256 3.0 11.0 0.00 0.00 0.00 59 1019.6
20260507142710 40 248 4.0 9.0 0.00 0.00 0.00 60 1019.6
20260507141831 40 255 3.0 9.0 0.00 0.00 0.00 59 1019.6
20260507140910 40 213 4.0 14.0 0.00 0.00 0.00 58 1019.2
20260507140012 40 255 2.0 8.0 0.00 0.00 0.00 61 1019.2
20260507135431 39 3 1.0 4.0 0.00 0.00 0.00 65 1019.2
20260507134510 39 67 1.0 4.0 0.00 0.00 0.00 64 1019.2
20260507133631 40 88 2.0 5.0 0.00 0.00 0.00 65 1019.2
20260507132716 40 264 2.0 10.0 0.00 0.00 0.00 62 1019.2
20260507131810 38 52 2.0 9.0 0.00 0.00 0.00 70 1019.2
20260507130910 38 55 2.0 7.0 0.00 0.00 0.00 65 1018.9
20260507130010 37 92 3.0 7.0 0.00 0.00 0.00 67 1018.9
20260507125431 36 92 3.0 9.0 0.00 0.00 0.00 66 1018.9
20260507124510 36 112 4.0 11.0 0.00 0.00 0.00 70 1018.9
20260507123610 35 105 3.0 11.0 0.00 0.00 0.00 74 1018.9
20260507122731 35 102 3.0 7.0 0.00 0.00 0.00 76 1018.9
20260507121831 35 84 3.0 8.0 0.00 0.00 0.00 75 1018.9
20260507120910 35 98 3.0 10.0 0.00 0.00 0.00 74 1018.2
20260507120010 35 93 2.0 8.0 0.00 0.00 0.00 73 1018.2
20260507115410 36 172 2.0 7.0 0.00 0.00 0.00 72 1018.2
20260507114531 36 247 2.0 4.0 0.00 0.00 0.00 71 1018.2
20260507113609 36 257 3.0 11.0 0.00 0.00 0.00 67 1018.2
20260507112709 35 270 3.0 8.0 0.00 0.00 0.00 70 1018.2
20260507111809 35 300 2.0 7.0 0.00 0.00 0.00 71 1018.2
20260507110910 34 303 2.0 4.0 0.00 0.00 0.00 73 1017.8
20260507110010 34 262 2.0 4.0 0.00 0.00 0.00 72 1017.8
20260507105409 34 259 2.0 9.0 0.00 0.00 0.00 73 1017.8
20260507104509 34 299 3.0 9.0 0.00 0.00 0.00 75 1017.8
20260507103609 34 303 3.0 13.0 0.00 0.00 0.00 76 1017.8
20260507102709 32 271 3.0 13.0 0.00 0.00 0.00 76 1017.8
20260507101809 32 235 2.0 5.0 0.00 0.00 0.00 80 1017.8
20260507100930 32 134 2.0 8.0 0.00 0.00 0.00 81 1017.8
20260507095430 32 115 2.0 7.0 0.00 0.00 0.00 80 1017.9
20260507094509 32 80 1.0 3.0 0.00 0.00 0.00 78 1017.9
20260507093609 32 93 2.0 4.0 0.00 0.00 0.00 78 1017.9
20260507092709 33 141 1.0 4.0 0.00 0.00 0.00 77 1017.9
20260507091830 33 30 3.0 12.0 0.00 0.00 0.00 74 1017.9
20260507090909 32 290 3.0 12.0 0.00 0.00 0.00 77 1018.0
20260507090010 32 122 2.0 5.0 0.00 0.00 0.00 77 1018.0
20260507085409 32 46 2.0 7.0 0.00 0.00 0.00 75 1018.0
20260507084509 32 117 2.0 7.0 0.00 0.00 0.00 74 1018.0
20260507083609 32 106 3.0 6.0 0.00 0.00 0.00 73 1018.0
20260507082709 32 146 3.0 11.0 0.00 0.00 0.00 75 1018.0
20260507081809 31 217 3.0 9.0 0.00 0.00 0.00 77 1018.0
20260507080909 28 225 2.0 7.0 0.00 0.00 0.00 82 1018.9
20260507080010 28 283 2.0 8.0 0.00 0.00 0.00 84 1018.9
20260507075409 28 159 2.0 8.0 0.00 0.00 0.00 83 1018.9
20260507074509 28 154 2.0 9.0 0.00 0.00 0.00 82 1018.9
20260507073608 28 150 2.0 9.0 0.00 0.00 0.00 82 1018.9
20260507072709 28 206 2.0 6.0 0.00 0.00 0.00 81 1018.9
20260507071809 28 132 2.0 5.0 0.00 0.00 0.00 81 1018.9
20260507070908 28 78 2.0 4.0 0.00 0.00 0.00 80 1018.9
20260507070018 28 55 2.0 6.0 0.00 0.00 0.00 80 1018.9
20260507065430 28 86 3.0 18.0 0.00 0.00 0.00 80 1018.9
20260507064509 28 120 2.0 18.0 0.00 0.00 0.00 81 1018.9
20260507063608 28 142 2.0 5.0 0.00 0.00 0.00 81 1018.9
20260507062709 29 187 2.0 6.0 0.00 0.00 0.00 80 1018.9
20260507061810 30 334 2.0 11.0 0.00 0.00 0.00 78 1018.9
20260507060908 30 135 3.0 11.0 0.00 0.00 0.00 76 1018.9
20260507060034 31 120 3.0 10.0 0.00 0.00 0.00 77 1018.9
20260507055409 31 75 4.0 11.0 0.00 0.00 0.00 73 1018.9
20260507054510 31 16 5.0 15.0 0.00 0.01 0.00 75 1018.9
20260507053608 30 11 4.0 20.0 0.00 0.02 0.00 77 1018.9
20260507052708 30 13 4.0 21.0 0.00 0.03 0.00 77 1018.9
20260507051808 30 118 3.0 10.0 0.00 0.03 0.00 78 1018.9
20260507050929 30 107 3.0 10.0 0.00 0.04 0.00 76 1018.8